TimeEDT,TemperatureF,Dew PointF,Humidity,Sea Level PressureIn,VisibilityMPH,Wind Direction,Wind SpeedMPH,Gust SpeedMPH,PrecipitationIn,Events,Conditions,WindDirDegrees,DateUTC
12:15 AM,55.6,55.6,100,30.02,5.0,Calm,Calm,-,N/A,,Clear,0,2012-10-06 04:15:00
12:35 AM,56.7,56.7,100,30.02,5.0,Calm,Calm,-,N/A,,Clear,0,2012-10-06 04:35:00
12:55 AM,57.2,57.2,100,30.01,7.0,Calm,Calm,-,N/A,,Clear,0,2012-10-06 04:55:00
1:15 AM,57.0,56.8,99,30.01,5.0,Calm,Calm,-,N/A,,Clear,0,2012-10-06 05:15:00
1:35 AM,57.0,56.8,99,30.01,7.0,Calm,Calm,-,N/A,,Scattered Clouds,0,2012-10-06 05:35:00
1:55 AM,57.0,56.8,99,30.01,7.0,Calm,Calm,-,N/A,,Scattered Clouds,0,2012-10-06 05:55:00
2:15 AM,57.6,57.2,99,30.00,7.0,Calm,Calm,-,N/A,,Clear,0,2012-10-06 06:15:00
2:55 AM,59.4,58.3,96,29.99,10.0,SSW,3.5,-,N/A,,Clear,210,2012-10-06 06:55:00
3:15 AM,59.2,57.9,96,29.98,10.0,Calm,Calm,-,N/A,,Clear,0,2012-10-06 07:15:00
3:35 AM,59.2,57.7,95,29.97,10.0,SSW,3.5,-,N/A,,Clear,210,2012-10-06 07:35:00
3:55 AM,59.2,57.9,96,29.96,7.0,Calm,Calm,-,N/A,,Clear,0,2012-10-06 07:55:00
4:15 AM,58.1,56.8,96,29.96,5.0,Calm,Calm,-,N/A,,Clear,0,2012-10-06 08:15:00
4:35 AM,56.5,55.6,97,29.96,3.0,Calm,Calm,-,N/A,,Clear,0,2012-10-06 08:35:00
4:55 AM,57.6,57.0,98,29.96,5.0,Calm,Calm,-,N/A,,Clear,0,2012-10-06 08:55:00
5:35 AM,56.7,56.1,98,29.96,3.0,Calm,Calm,-,N/A,,Clear,0,2012-10-06 09:35:00
5:55 AM,55.9,55.4,98,29.96,5.0,Calm,Calm,-,N/A,,Clear,0,2012-10-06 09:55:00
6:15 AM,55.6,55.2,99,29.97,2.5,Calm,Calm,-,N/A,,Clear,0,2012-10-06 10:15:00
6:35 AM,56.5,56.3,99,29.97,3.0,Calm,Calm,-,N/A,,Clear,0,2012-10-06 10:35:00
6:55 AM,57.4,57.2,99,29.97,4.0,SSW,3.5,-,N/A,,Clear,210,2012-10-06 10:55:00
7:15 AM,57.6,57.4,99,29.96,4.0,SSW,3.5,-,N/A,,Clear,210,2012-10-06 11:15:00
7:35 AM,57.4,57.0,99,29.96,2.5,SW,4.6,-,N/A,,Clear,220,2012-10-06 11:35:00
7:55 AM,57.2,57.2,100,29.96,2.5,SSW,4.6,-,N/A,,Clear,210,2012-10-06 11:55:00
8:15 AM,58.1,57.7,99,29.97,3.0,SW,3.5,-,N/A,,Clear,220,2012-10-06 12:15:00
8:35 AM,59.4,59.2,99,29.97,4.0,SW,4.6,-,N/A,,Clear,230,2012-10-06 12:35:00
8:55 AM,60.6,60.1,98,29.97,4.0,SW,5.8,-,N/A,,Clear,230,2012-10-06 12:55:00
9:15 AM,61.5,60.4,96,29.97,4.0,SW,4.6,-,N/A,,Clear,230,2012-10-06 13:15:00
9:35 AM,63.3,61.0,92,29.97,5.0,SW,4.6,-,N/A,,Clear,230,2012-10-06 13:35:00
10:15 AM,67.1,61.7,83,29.97,7.0,SW,5.8,-,N/A,,Clear,230,2012-10-06 14:15:00
10:35 AM,68.9,61.7,78,29.95,10.0,WSW,3.5,-,N/A,,Clear,240,2012-10-06 14:35:00
10:55 AM,70.9,62.1,74,29.94,10.0,SW,4.6,-,N/A,,Clear,220,2012-10-06 14:55:00
11:15 AM,72.5,62.2,70,29.94,10.0,SW,4.6,-,N/A,,Clear,220,2012-10-06 15:15:00
11:35 AM,74.5,62.2,66,29.94,10.0,SSW,8.1,-,N/A,,Clear,210,2012-10-06 15:35:00
11:55 AM,75.7,61.5,61,29.94,7.0,SW,5.8,-,N/A,,Clear,230,2012-10-06 15:55:00
12:15 PM,76.5,60.6,58,29.94,10.0,SW,6.9,-,N/A,,Clear,230,2012-10-06 16:15:00
12:35 PM,77.5,60.4,55,29.94,10.0,SW,9.2,-,N/A,,Clear,220,2012-10-06 16:35:00
12:55 PM,78.4,61.0,55,29.94,10.0,WSW,8.1,-,N/A,,Scattered Clouds,250,2012-10-06 16:55:00
1:15 PM,79.0,61.0,54,29.93,10.0,SW,8.1,-,N/A,,Scattered Clouds,230,2012-10-06 17:15:00
1:35 PM,78.4,61.2,55,29.93,10.0,WSW,5.8,-,N/A,,Mostly Cloudy,250,2012-10-06 17:35:00
1:55 PM,77.2,60.8,57,29.92,10.0,WSW,4.6,-,N/A,,Overcast,250,2012-10-06 17:55:00
2:15 PM,76.6,61.2,59,29.91,10.0,West,3.5,-,N/A,,Overcast,270,2012-10-06 18:15:00
2:35 PM,76.1,61.2,60,29.91,10.0,NW,6.9,-,N/A,,Overcast,310,2012-10-06 18:35:00
2:55 PM,76.5,60.4,58,29.91,10.0,Calm,Calm,-,N/A,,Mostly Cloudy,0,2012-10-06 18:55:00
3:15 PM,76.3,61.5,60,29.91,10.0,Calm,Calm,-,N/A,,Mostly Cloudy,0,2012-10-06 19:15:00
3:35 PM,75.7,60.8,60,29.92,10.0,NW,3.5,-,N/A,,Overcast,320,2012-10-06 19:35:00
3:55 PM,75.2,60.3,60,29.91,10.0,WNW,6.9,-,N/A,,Overcast,300,2012-10-06 19:55:00
4:15 PM,77.0,58.6,53,29.91,10.0,NNW,4.6,-,N/A,,Mostly Cloudy,340,2012-10-06 20:15:00
4:35 PM,75.9,59.2,56,29.91,10.0,NNW,4.6,-,N/A,,Mostly Cloudy,340,2012-10-06 20:35:00
4:55 PM,74.7,59.9,60,29.92,10.0,NNW,3.5,-,N/A,,Overcast,340,2012-10-06 20:55:00
5:15 PM,73.4,59.2,61,29.92,10.0,North,3.5,-,N/A,,Mostly Cloudy,350,2012-10-06 21:15:00
5:35 PM,71.4,58.6,64,29.94,10.0,North,5.8,-,N/A,,Scattered Clouds,10,2012-10-06 21:35:00
5:55 PM,69.6,58.1,67,29.95,10.0,NNE,5.8,-,N/A,,Mostly Cloudy,20,2012-10-06 21:55:00
6:15 PM,68.4,57.6,68,29.95,10.0,NNE,4.6,-,N/A,,Mostly Cloudy,30,2012-10-06 22:15:00
6:35 PM,67.6,56.7,68,29.96,10.0,North,4.6,-,N/A,,Overcast,350,2012-10-06 22:35:00
6:55 PM,66.9,55.6,67,29.97,10.0,North,4.6,-,N/A,,Overcast,10,2012-10-06 22:55:00
7:15 PM,66.0,55.0,68,29.97,10.0,North,3.5,-,N/A,,Overcast,360,2012-10-06 23:15:00
7:35 PM,65.3,54.7,68,29.98,10.0,North,5.8,-,N/A,,Overcast,360,2012-10-06 23:35:00
7:55 PM,65.1,54.3,68,29.99,10.0,NNE,4.6,-,N/A,,Overcast,20,2012-10-06 23:55:00
8:15 PM,64.8,54.0,68,30.00,10.0,North,3.5,-,N/A,,Overcast,10,2012-10-07 00:15:00
8:35 PM,64.6,53.4,67,30.00,10.0,NE,5.8,-,N/A,,Overcast,40,2012-10-07 00:35:00
8:55 PM,64.2,52.3,65,30.00,10.0,NNE,4.6,-,N/A,,Overcast,20,2012-10-07 00:55:00
9:15 PM,63.7,51.4,64,30.01,10.0,NNE,6.9,-,N/A,,Overcast,20,2012-10-07 01:15:00
9:35 PM,63.3,50.7,63,30.00,10.0,NNE,4.6,-,N/A,,Overcast,20,2012-10-07 01:35:00
9:55 PM,62.8,49.6,62,30.01,10.0,Calm,Calm,-,N/A,,Overcast,0,2012-10-07 01:55:00
10:15 PM,61.0,50.9,69,30.01,7.0,NNE,3.5,-,0.02,Rain,Light Rain,20,2012-10-07 02:15:00
10:35 PM,57.6,52.9,84,30.02,10.0,Calm,Calm,-,0.02,,Overcast,0,2012-10-07 02:35:00
10:55 PM,57.0,53.1,87,30.01,10.0,Calm,Calm,-,0.02,Rain,Light Rain,0,2012-10-07 02:55:00
11:15 PM,57.0,53.6,88,30.02,10.0,South,3.5,-,N/A,,Overcast,170,2012-10-07 03:15:00
11:35 PM,57.2,54.1,89,30.04,4.0,Calm,Calm,-,0.04,Rain,Rain,0,2012-10-07 03:35:00
11:55 PM,55.8,53.4,92,30.04,7.0,Calm,Calm,-,0.08,Rain,Light Rain,0,2012-10-07 03:55:00